Weather History for Homerville, GA

Change the Weather History Date:

Sunday, January 19, 2014

  Actual Average Record
Temperature  
Mean Temperature 48 °F -  
Max Temperature 62 °F 64 °F 78 °F (1982)
Min Temperature 33 °F 40 °F 16 °F (1977)
Degree Days  
Heating Degree Days 18    
Moisture  
Dew Point 37 °F    
Average Humidity 74    
Maximum Humidity 100    
Minimum Humidity 39    
Precipitation  
Precipitation 0.00 in - - ()
Sea Level Pressure  
Sea Level Pressure 30.11 in    
Wind  
Wind Speed 5 mph (WSW)    
Max Wind Speed 17 mph    
Max Gust Speed 24 mph    
Visibility 10 miles    
Events Rain    
Averages and records for this station are not official NWS values.
T = Trace of Precipitation, MM = Missing Value Source: NWS Daily Summary

Daily Weather History Graph

Daily Weather History Graph

Search for Another Location

Airport:

Trip Planner

Search our weather history database for the weather conditions in past years. The results will help you decide how hot, cold, wet, or windy it might be!

Date:

Astronomy

Jan. 19, 2014 Rise Set
Actual Time 7:29 AM EST 5:55 PM EST
Civil Twilight 7:03 AM EST 6:20 PM EST
Nautical Twilight 6:33 AM EST 6:50 PM EST
Astronomical Twilight 6:04 AM EST 7:19 PM EST
Moon 9:14 PM EST (1/19) 9:13 AM EST (1/19)
Length of Visible Light 11h 17m
Length of Day
10h 26m
Waning Gibbous, 89% of the Moon is Illuminated
Jan 19
Waning Gibbous
Jan 24
Last Quarter
Jan 30
New
Feb 6
First Quarter
Feb 14
Full

Hourly Weather History & Observations

Time (EST) Temp. Windchill Dew Point Humidity Pressure Visibility Wind Dir Wind Speed Gust Speed Precip Events Conditions
12:15 AM 35.6 °F - 30.2 °F 81% 30.15 in 10.0 mi Calm Calm - N/A   Clear
12:35 AM 35.6 °F 31.7 °F 30.2 °F 81% 30.14 in 10.0 mi SW 4.6 mph - N/A   Clear
12:55 AM 35.6 °F 31.7 °F 30.2 °F 81% 30.13 in 10.0 mi SW 4.6 mph - N/A   Clear
1:15 AM 35.6 °F - 30.2 °F 81% 30.12 in 10.0 mi Calm Calm - N/A   Clear
1:35 AM 33.8 °F 30.8 °F 32.0 °F 93% 30.12 in 10.0 mi South 3.5 mph - N/A   Clear
1:55 AM 35.6 °F 32.8 °F 32.0 °F 87% 30.12 in 10.0 mi South 3.5 mph - N/A   Clear
2:15 AM 35.6 °F - 32.0 °F 87% 30.13 in 10.0 mi Calm Calm - N/A   Clear
2:35 AM 33.8 °F 30.8 °F 32.0 °F 93% 30.13 in 10.0 mi SW 3.5 mph - N/A   Clear
2:55 AM 33.8 °F 29.6 °F 30.2 °F 87% 30.14 in 10.0 mi WSW 4.6 mph - N/A   Clear
3:15 AM 35.6 °F 31.7 °F 30.2 °F 81% 30.13 in 10.0 mi WSW 4.6 mph - N/A   Clear
3:35 AM 35.6 °F 32.8 °F 32.0 °F 87% 30.13 in 10.0 mi SSW 3.5 mph - N/A   Clear
3:55 AM 35.6 °F 32.8 °F 30.2 °F 81% 30.13 in 10.0 mi SSW 3.5 mph - N/A   Clear
4:15 AM 35.6 °F 30.7 °F 32.0 °F 87% 30.12 in 10.0 mi SSW 5.8 mph - N/A   Clear
4:35 AM 35.6 °F 31.7 °F 32.0 °F 87% 30.12 in 10.0 mi SW 4.6 mph - N/A   Clear
4:55 AM 35.6 °F 32.8 °F 32.0 °F 87% 30.12 in 10.0 mi WSW 3.5 mph - N/A   Clear
5:15 AM 35.6 °F - 32.0 °F 87% 30.12 in 10.0 mi Calm Calm - N/A   Scattered Clouds
5:35 AM 35.6 °F 32.8 °F 32.0 °F 87% 30.12 in 10.0 mi SW 3.5 mph - N/A   Mostly Cloudy
5:55 AM 35.6 °F - 32.0 °F 87% 30.12 in 10.0 mi Calm Calm - N/A   Mostly Cloudy
6:15 AM 35.6 °F 32.8 °F 32.0 °F 87% 30.13 in 10.0 mi WSW 3.5 mph - N/A   Overcast
6:35 AM 37.4 °F 34.9 °F 33.8 °F 87% 30.13 in 10.0 mi SW 3.5 mph - N/A   Overcast
6:55 AM 37.4 °F 34.9 °F 33.8 °F 87% 30.12 in 10.0 mi SW 3.5 mph - N/A   Mostly Cloudy
7:15 AM 39.2 °F 33.6 °F 35.6 °F 87% 30.10 in 10.0 mi SSW 8.1 mph - N/A   Scattered Clouds
7:35 AM 41.0 °F 38.0 °F 35.6 °F 81% 30.11 in 10.0 mi SSW 4.6 mph - N/A   Clear
7:55 AM 41.0 °F - 37.4 °F 87% 30.12 in 10.0 mi Calm Calm - N/A   Clear
8:15 AM 42.8 °F 40.1 °F 37.4 °F 81% 30.12 in 10.0 mi SSW 4.6 mph - N/A   Clear
8:35 AM 42.8 °F 40.1 °F 39.2 °F 87% 30.13 in 10.0 mi SW 4.6 mph - N/A   Clear
8:55 AM 44.6 °F 42.2 °F 41.0 °F 87% 30.13 in 10.0 mi SW 4.6 mph - N/A   Scattered Clouds
9:15 AM 48.2 °F - 42.8 °F 82% 30.12 in 10.0 mi WSW 6.9 mph - N/A   Mostly Cloudy
9:35 AM 50.0 °F - 42.8 °F 76% 30.14 in 10.0 mi West 10.4 mph - N/A   Light Drizzle
9:55 AM 51.8 °F - 44.6 °F 76% 30.15 in 10.0 mi WSW 9.2 mph 17.3 mph N/A   Overcast
10:15 AM 51.8 °F - 44.6 °F 76% 30.16 in 10.0 mi SW 10.4 mph 16.1 mph N/A   Overcast
10:35 AM 51.8 °F - 44.6 °F 76% 30.15 in 10.0 mi WSW 8.1 mph - N/A Rain Light Rain
10:55 AM 53.6 °F - 46.4 °F 77% 30.16 in 10.0 mi West 11.5 mph 16.1 mph N/A   Mostly Cloudy
11:15 AM 55.4 °F - 46.4 °F 72% 30.15 in 10.0 mi West 9.2 mph - N/A   Scattered Clouds
11:35 AM 57.2 °F - 46.4 °F 67% 30.14 in 10.0 mi West 12.7 mph 17.3 mph N/A   Clear
11:55 AM 60.8 °F - 44.6 °F 55% 30.14 in 10.0 mi WNW 16.1 mph 20.7 mph N/A   Scattered Clouds
12:15 PM 60.8 °F - 44.6 °F 55% 30.12 in 10.0 mi West 13.8 mph 20.7 mph N/A   Clear
12:35 PM 60.8 °F - 44.6 °F 55% 30.11 in 10.0 mi West 15.0 mph 20.7 mph N/A   Clear
12:55 PM 60.8 °F - 44.6 °F 55% 30.10 in 10.0 mi West 12.7 mph 18.4 mph N/A   Clear
1:15 PM 62.6 °F - 44.6 °F 52% 30.09 in 10.0 mi West 12.7 mph 18.4 mph N/A   Clear
1:35 PM 62.6 °F - 42.8 °F 48% 30.08 in 10.0 mi West 13.8 mph 19.6 mph N/A   Scattered Clouds
1:55 PM 62.6 °F - 42.8 °F 48% 30.08 in 10.0 mi WNW 10.4 mph 17.3 mph N/A   Scattered Clouds
2:15 PM 62.6 °F - 41.0 °F 45% 30.07 in 10.0 mi West 16.1 mph 24.2 mph N/A   Scattered Clouds
2:35 PM 62.6 °F - 41.0 °F 45% 30.07 in 10.0 mi West 11.5 mph - N/A   Scattered Clouds
2:55 PM 62.6 °F - 39.2 °F 42% 30.06 in 10.0 mi West 12.7 mph 20.7 mph N/A   Clear
3:15 PM 62.6 °F - 39.2 °F 42% 30.07 in 10.0 mi West 13.8 mph 20.7 mph N/A   Clear
3:35 PM 62.6 °F - 37.4 °F 39% 30.07 in 10.0 mi West 13.8 mph 20.7 mph N/A   Clear
3:55 PM 62.6 °F - 37.4 °F 39% 30.08 in 10.0 mi West 17.3 mph 21.9 mph N/A   Clear
4:15 PM 62.6 °F - 37.4 °F 39% 30.07 in 10.0 mi West 12.7 mph 17.3 mph N/A   Clear
4:35 PM 62.6 °F - 37.4 °F 39% 30.08 in 10.0 mi WNW 13.8 mph 18.4 mph N/A   Clear
4:55 PM 60.8 °F - 37.4 °F 42% 30.08 in 10.0 mi NW 9.2 mph - N/A   Clear
5:15 PM 60.8 °F - 37.4 °F 42% 30.08 in 10.0 mi WNW 9.2 mph - N/A   Clear
5:35 PM 59.0 °F - 37.4 °F 45% 30.08 in 10.0 mi WNW 6.9 mph - N/A   Clear
5:55 PM 55.4 °F - 37.4 °F 51% 30.08 in 10.0 mi WNW 5.8 mph - N/A   Clear
6:15 PM 53.6 °F - 37.4 °F 54% 30.09 in 10.0 mi WNW 5.8 mph - N/A   Clear
6:35 PM 51.8 °F - 41.0 °F 67% 30.09 in 10.0 mi Calm Calm - N/A   Clear
6:55 PM 50.0 °F - 37.4 °F 62% 30.10 in 10.0 mi Calm Calm - N/A   Clear
7:15 PM 48.2 °F - 41.0 °F 76% 30.10 in 10.0 mi Calm Calm - N/A   Clear
8:15 PM 42.8 °F - 39.2 °F 87% 30.11 in 10.0 mi Calm Calm - N/A   Clear
8:35 PM 42.8 °F - 37.4 °F 81% 30.11 in 10.0 mi Calm Calm - N/A   Clear
8:55 PM 41.0 °F - 37.4 °F 87% 30.11 in 10.0 mi Calm Calm - N/A   Clear
9:15 PM 41.0 °F - 37.4 °F 87% 30.11 in 10.0 mi Calm Calm - N/A   Clear
9:35 PM 39.2 °F - 37.4 °F 93% 30.12 in 10.0 mi Calm Calm - N/A   Clear
9:55 PM 39.2 °F - 37.4 °F 93% 30.12 in 10.0 mi Calm Calm - N/A   Clear
10:15 PM 37.4 °F - 35.6 °F 93% 30.12 in 10.0 mi Calm Calm - N/A   Clear
10:35 PM 37.4 °F - 37.4 °F 100% 30.12 in 10.0 mi Calm Calm - N/A   Clear
10:55 PM 37.4 °F - 35.6 °F 93% 30.13 in 10.0 mi Calm Calm - N/A   Clear
11:15 PM 37.4 °F - 35.6 °F 93% 30.13 in 10.0 mi Calm Calm - N/A   Clear
11:35 PM 35.6 °F - 35.6 °F 100% 30.13 in 10.0 mi Calm Calm - N/A   Clear
11:55 PM 35.6 °F - 35.6 °F 100% 30.13 in 10.0 mi Calm Calm - N/A   Clear